Regional Weather Roundup
Issued by NWS

Home | Current Version | Previous Version | Graphics & Text | Print | Product List | Glossary On
Versions: 1 2 3 4 5 6 7 8 9 10 11 12 13 14 15 16 17 18 19 20 21 22 23 24 25 26 27 28 29 30 31 32 33 34 35 36 37 38 39 40 41 42 43 44 45 46 47 48 49 50
000
ASUS43 KMPX 270601
RWRMN
WEATHER ROUNDUP FOR MINNESOTA
NATIONAL WEATHER SERVICE TWIN CITIES/CHANHASSEN MN
100 AM CDT MON MAR 27 2017


NOTE: "FAIR" INDICATES FEW OR NO CLOUDS BELOW 12,000 FEET WITH NO
SIGNIFICANT WEATHER AND/OR OBSTRUCTIONS TO VISIBILITY. N/A MEANS
CURRENT SKY AND/OR WEATHER CONDITIONS ARE NOT AVAILABLE.

MNZ060>063-068>070-270700-
   Twin Cities Metro

CITY           SKY/WX    TMP DP  RH WIND       PRES   REMARKS
TWIN CITIES    CLOUDY    39  35  86 N5        29.94S
6HR MIN TEMP:  39; 6HR MAX TEMP:  43; 6HR PCP: TRACE;

ST PAUL        CLOUDY    39  37  92 N5        29.94F
CRYSTAL        CLOUDY    38  33  82 N3        29.93S
BLAINE         CLOUDY    39  37  93 N3        29.93F
LAKEVILLE      CLOUDY    37  37 100 CALM      29.93S
EDEN PRAIRIE   CLOUDY    40  36  86 CALM      29.92F
6HR MIN TEMP:  39; 6HR MAX TEMP:  42;

SOUTH ST PAUL  CLOUDY    39  37  92 N5        29.93F
LAKE ELMO      CLOUDY    37  36  93 N3        29.94S
$$
MNZ001>005-007-008-013>017-022>024-027-028-270700-
   Northwest Minnesota

CITY           SKY/WX    TMP DP  RH WIND       PRES   REMARKS
BEMIDJI        CLOUDY    33  30  90 CALM      29.93S
HALLOCK        FOG       30  30 100 CALM      29.95F VSB 1/4
ROSEAU         CLEAR     28  25  86 CALM      29.95R FOG
WARROAD        CLEAR     30  27  86 W3        29.95R FOG
THIEF RVR FALL FOG       29  27  92 CALM      29.96R VSB 1/4
CROOKSTON      FOG       30  30 100 CALM      29.97R VSB 1/2
FOSSTON        CLOUDY    34  34 100 CALM      29.95S FOG
DETROIT LAKES  CLOUDY    37  36  93 NW3       29.95S
MOORHEAD       CLOUDY    36  34  93 CALM      29.97R
PARK RAPIDS    CLOUDY    37  30  75 CALM      29.92F
MAHNOMEN       CLOUDY    35  34  97 CALM      29.95S
$$
MNZ006-009>011-018-025>026-270700-
   North Central Minnesota

CITY           SKY/WX    TMP DP  RH WIND       PRES   REMARKS
BAUDETTE       CLOUDY    29  27  92 CALM      29.93S FOG
FLAG ISLAND    CLEAR     30  28  93 CALM      29.93S
INTL FALLS     CLEAR     29  27  92 CALM      29.92S
6HR MIN TEMP:  29; 6HR MAX TEMP:  42;

WASKISH        CLOUDY    30  28  93 CALM      29.95R
BIG FORK       CLOUDY    32  28  86 CALM      29.93R
LONGVILLE      MOCLDY    32  30  93 CALM      29.93S
GRAND RAPIDS   PTCLDY    36  31  82 CALM      29.94S
CRANE LAKE     CLOUDY    30  28  93 CALM      29.94R
ORR            CLOUDY    34  27  75 CALM      29.90S
COOK           CLOUDY    32  28  86 CALM      29.92S
WALKER         CLOUDY    34  30  86 CALM      29.93S
$$
MNZ012-019>021-037-270700-
   Northeast Minnesota

CITY           SKY/WX    TMP DP  RH WIND       PRES   REMARKS
DULUTH         FOG       32  31  96 CALM      29.92S VSB 1/2
6HR MIN TEMP:  32; 6HR MAX TEMP:  33;

ELY            CLOUDY    28  27  93 CALM      29.91S
HIBBING        CLOUDY    29  29 100 CALM      29.92S
EVELETH        CLOUDY    30  28  93 CALM      29.93S
DULUTH HARBOR  CLOUDY    34  32  93 CALM      29.97S
TWO HARBORS    HAZE      36  30  80 CALM      29.92S VSB 1/2
SILVER BAY     FOG       34  34 100 CALM      29.92S VSB 1
GRAND MARAIS     N/A     34  33  96 W3        29.94
G MARAIS ARPRT FOG       28  27  93 CALM      29.90S VSB 3/4
$$
MNZ029>031-032-039>041-046>048-054>057-064-270700-
   West Central Minnesota

CITY           SKY/WX    TMP DP  RH WIND       PRES   REMARKS
FERGUS FALLS   CLOUDY    37  36  93 NE3       29.99R
WHEATON        PTCLDY    36  34  93 SW3       29.98R
MORRIS         PTCLDY    36  36 100 CALM      29.94S
ALEXANDRIA     CLOUDY    39  34  82 CALM      29.94S
ELBOW LAKE     FAIR      36  35  98 N5        29.96R
WADENA         CLOUDY    34  30  86 CALM      29.93S
GLENWOOD       CLOUDY    37  36  93 CALM      29.95R
APPLETON       CLOUDY    36  34  93 CALM      29.95S
BENSON         CLOUDY    37  32  81 CALM      29.96S
ORTONVILLE     CLOUDY    37  34  87 W3        29.96R
MADISON        CLOUDY    37  37 100 CALM      29.95S FOG
WILLMAR        FAIR      37  36  93 SE3       29.96S
$$
MNZ033>034-036-042>043-049>051-058-059-270700-
   Central Minnesota

CITY           SKY/WX    TMP DP  RH WIND       PRES   REMARKS
ST CLOUD       CLOUDY    37  37 100 CALM      29.94F
6HR MIN TEMP:  37; 6HR MAX TEMP:  38;

SAUK CENTRE    CLOUDY    36  34  92 CALM      29.94F
PAYNESVILLE      N/A     35  35 100 CALM      29.95S
AITKIN         MOCLDY    34  28  80 CALM      29.93S
PINE RIVER     CLOUDY    34  30  86 CALM      29.97S
BRAINERD       CLOUDY    35  32  88 S3        29.94S
STAPLES        PTCLDY    36  32  87 CALM      29.93F
LONG PRAIRIE   MOCLDY    34  32  93 CALM      29.94F
LITTLE FALLS   CLOUDY    34  32  93 CALM      29.95R
LITCHFIELD     CLOUDY    39  37  93 CALM      29.95S
BUFFALO        CLOUDY    37  36  93 CALM      29.95S
MAPLE LAKE     CLOUDY    38  37  99 CALM      29.95S
HUTCHINSON     CLOUDY    38  37  97 CALM      29.96S
$$
MNZ037-044-045-052-053-270700-
   East Central Minnesota

CITY           SKY/WX    TMP DP  RH WIND       PRES   REMARKS
PRINCETON      CLOUDY    37  36  93 CALM      29.95S FOG
MORA           CLOUDY    34  34 100 CALM      29.96S FOG
CAMBRIDGE      CLOUDY    37  36  93 CALM      29.93S
RUSH CITY      CLOUDY    35  34  94 CALM      29.94F
MOOSE LAKE     CLOUDY    32  32 100 CALM      29.93S FOG
CLOQUET        FOG       30  28  93 CALM      29.93S VSB 1
MCGREGOR       MOCLDY    32  30  93 CALM      29.94S
$$
MNZ071>073-080-081-089-090-097-098-270700-
   Southwest Minnesota

CITY           SKY/WX    TMP DP  RH WIND       PRES   REMARKS
MONTEVIDEO     CLOUDY    36  34  93 NW5       29.96S
GRANITE FALLS  CLOUDY    39  37  93 W6        29.96F
CANBY          CLOUDY    37  36  97 CALM      29.96R
MARSHALL       CLOUDY    38  35  89 SW5       29.94F
REDWOOD FALLS  CLOUDY    40  36  86 SE3       29.94F
OLIVIA         CLOUDY    39  36  87 S3        29.93F
PIPESTONE      FOG       34  30  86 CALM      29.93S VSB 1
WINDOM         PTCLDY    39  37  93 CALM      29.94S
WORTHINGTON    CLOUDY    38  37  97 W5        29.93F
JACKSON        CLOUDY    37  37 100 CALM      29.94F FOG
TRACY          CLOUDY    40  38  92 SW5       29.94F
SLAYTON        PTCLDY    34  34  99 W5        29.94S FOG     WCI  30
$$
MNZ065>067-074>077-082>085-091>093-270700-
   South Central Minnesota

CITY           SKY/WX    TMP DP  RH WIND       PRES   REMARKS
MANKATO        CLOUDY    38  37  97 NW3       29.93F
NEW ULM        CLOUDY    37  36  93 W3        29.94F
ST JAMES       CLOUDY    37  37 100 CALM      29.95F
FAIRMONT       CLOUDY    39  37  92 NW3       29.94F
GLENCOE        CLOUDY    38  38 100 W3        29.94F
FARIBAULT      CLOUDY    39  37  93 CALM      29.93F FOG
OWATONNA       CLOUDY    39  37  93 CALM      29.92F FOG
WASECA         CLOUDY    37  36  93 NW5       29.94F FOG
ALBERT LEA     FOG       39  39 100 CALM      29.92F VSB 3/4
$$
MNZ078>079-086>088-094>096-270700-
   Southeast Minnesota

CITY           SKY/WX    TMP DP  RH WIND       PRES   REMARKS
ROCHESTER      FOG       38  38 100 NW5       29.92S VSB 1/2
6HR MIN TEMP:  38; 6HR MAX TEMP:  40; 6HR PCP: TRACE;

RED WING       CLOUDY    39  39 100 W3        29.92S FOG
STANTON        CLOUDY    39  38  94 NW3       29.92S FOG
DODGE CENTER   FOG       37  37 100 NW5       29.91F VSB 1
WINONA         CLOUDY    41  37  87 CALM      29.92F FOG
AUSTIN         CLOUDY    39  37  93 CALM      29.92S FOG
PRESTON        FOG       38  37  96 NW6       29.91F VSB 1/2
$$
ABBREVIATIONS USED IN REMARKS
   TC - TEMPERATURES IN CELSIUS
  WCI - WIND CHILL INDEX
   HX - HEAT INDEX
  VSB - VISIBILITY
$$




USA.gov is the U.S. government's official web portal to all federal, state and local government web resources and services.